Tracking 19149 objects as of 20-Apr-2018
HD Live streaming from Space Station
objects crossing your sky now

SERT 2

Track SERT 2 now!
10-day predictions
SERT 2 is classified as:


NORAD ID: 4327
Int'l Code: 1970-009A
Perigee: 1,045.0 km
Apogee: 1,051.7 km
Inclination: 99.3 °
Period: 106.0 minutes
Semi major axis: 7419 km
RCS: 5.0507 m2 (large)
Launch date: February 4, 1970
Source: United States (US)
Launch site: AIR FORCE WESTERN TEST RANGE (AFWTR)
aabbcc
Your satellite tracking list
Your tracking list is empty




NASA's NSSDC Master Catalog

Two Line Element Set (TLE):
1  4327U 70009A   18109.88815493 -.00000001 +00000-0 +55781-4 0  9999
2  4327 099.2894 192.5499 0004512 350.6477 120.0971 13.58475678388724
Source of the keplerian elements: AFSPC